[[{"header":{"parameterUnit":"m.s-1","parameterCategory":1,"la1":30.2991,"la2":30.254,"lo1":-89.0895,"lo2":-89.0444,"dy":0.0017,"dx":0.0017,"nx":28,"ny":28,"refTime":"2025-08-25T03:00:00:Z","depth":0,"parameterNumber":2,"parameterNumberName":"U-component_of_WINDS"},"data":[0,0,0,0,0,0,0,0,0,0,0,0,0,0,0,0,0,0,0,0,0,0,0,0,0,0,0,0,0,0,0,0,0,0,0,0,0,0,0,0,0,0,0,0,0,0,0,0,0,0,0,0,0,0,0,0,0,0,-0.3425,-0.3425,0,-0.3391,-0.3391,-0.339,-0.335,-0.335,-0.3349,-0.3349,-0.3314,-0.3314,-0.3313,0,0,0,0,0,0,0,0,0,0,0,0,0,-0.3453,-0.3453,-0.3425,-0.3425,-0.3424,-0.3391,-0.3391,-0.339,-0.3351,-0.335,-0.3349,-0.3348,-0.3314,-0.3314,-0.3313,0,0,0,0,0,0,0,0,0,0,0,0,0,-0.3432,-0.3453,-0.3425,-0.34,-0.3398,-0.3391,-0.3391,-0.339,-0.3351,-0.335,-0.3349,-0.3348,-0.3314,-0.3314,-0.3313,-0.3328,0,0,-0.3312,-0.3311,0,0,0,0,0,0,0,0,-0.3434,-0.3431,-0.3404,-0.3402,-0.3399,-0.3374,-0.3388,-0.3369,-0.3351,-0.3369,-0.3349,-0.3348,-0.3335,-0.3333,-0.3328,-0.3327,-0.3325,-0.3312,-0.3311,-0.3311,-0.3311,0,0,0,0,0,0,0,-0.3435,-0.3433,-0.3412,-0.3404,-0.3401,-0.339,-0.3386,-0.3384,-0.3357,-0.3367,-0.3364,-0.336,-0.3333,-0.3329,-0.3327,-0.3325,-0.3312,-0.3311,-0.3311,-0.3311,-0.3331,-0.3332,0,0,0,0,0,0,-0.344,-0.3434,-0.3413,-0.3411,-0.3414,-0.339,-0.3386,-0.3383,-0.3357,-0.3352,-0.3361,-0.3359,-0.333,-0.3328,-0.3326,-0.334,-0.3311,-0.3311,-0.331,-0.333,-0.3331,-0.3332,0,0,0,0,0,0,-0.3441,-0.3439,-0.3414,-0.3421,-0.3417,-0.3391,-0.3388,-0.3383,-0.3378,-0.3353,-0.3348,-0.3362,-0.3329,-0.3326,-0.3327,-0.3338,-0.331,-0.331,-0.3329,-0.333,-0.3331,-0.337,0,0,0,0,0,0,-0.3442,-0.3439,-0.3446,-0.3422,-0.3417,-0.3417,-0.3389,-0.3383,-0.3378,-0.3374,-0.3352,-0.3348,-0.3328,-0.3328,-0.3327,-0.3337,-0.331,-0.3328,-0.333,-0.3331,-0.3368,-0.3372,-0.3377,0,0,0,0,0,-0.3443,-0.3458,-0.3446,-0.3444,-0.3425,-0.3418,-0.3415,-0.3393,-0.3379,-0.3384,-0.3367,-0.3348,-0.3337,-0.3329,-0.3327,-0.3337,-0.3327,-0.3329,-0.3331,-0.3366,-0.3372,-0.3376,0,0,0,0,0,0,-0.3485,-0.3455,-0.3441,-0.3449,-0.3436,-0.3411,-0.3418,-0.34,-0.3391,-0.3388,-0.336,-0.3356,-0.3359,-0.3348,-0.3339,-0.3349,-0.3329,-0.3331,-0.3356,-0.3362,-0.3366,-0.3369,-0.3309,0,0,0,0,0,-0.3495,-0.3493,-0.3466,-0.3476,-0.347,-0.3445,-0.3441,-0.3425,-0.341,-0.3405,-0.3388,-0.3375,-0.3367,-0.3364,-0.3356,-0.3365,-0.3359,-0.3371,-0.3375,-0.3379,-0.3381,-0.3383,-0.3387,-0.3338,-0.3338,-0.3338,0,0,-0.3516,-0.3499,-0.35,-0.3484,-0.3472,-0.3469,-0.3441,-0.344,-0.3437,-0.3405,-0.3404,-0.3391,-0.3374,-0.3378,-0.3379,-0.3369,-0.3393,-0.3382,-0.3385,-0.3385,-0.3385,-0.339,-0.3394,-0.334,-0.3339,-0.3339,0,0,-0.3553,-0.3541,-0.3546,-0.3534,-0.3516,-0.3499,-0.35,-0.3477,-0.3467,-0.3465,-0.344,-0.3436,-0.3426,-0.3414,-0.3406,-0.3435,-0.3416,-0.3433,-0.3456,-0.3458,-0.3462,-0.3465,-0.3474,-0.3478,-0.3435,-0.3435,-0.3435,0,-0.3582,-0.3577,-0.3552,-0.3551,-0.3544,-0.3513,-0.3518,-0.3507,-0.3488,-0.3483,-0.3472,-0.3455,-0.3442,-0.3442,-0.3449,-0.3444,-0.3443,-0.3436,-0.3464,-0.3467,-0.3469,-0.3477,-0.3481,-0.3437,-0.3437,-0.3436,-0.3436,0,-0.3612,-0.3609,-0.3615,-0.3596,-0.359,-0.3592,-0.3566,-0.3562,-0.3545,-0.3529,-0.3526,-0.3508,-0.3495,-0.3494,-0.3478,-0.3491,-0.3485,-0.3469,-0.3449,-0.3476,-0.3483,-0.3486,-0.344,-0.3439,-0.3438,-0.3438,0,0,-0.3677,-0.3641,-0.3644,-0.3634,-0.361,-0.3607,-0.3606,-0.3593,-0.359,-0.3576,-0.3575,-0.3564,-0.3548,-0.354,-0.3522,-0.3523,-0.3545,-0.3507,-0.3506,-0.3514,-0.3556,-0.3568,-0.3572,-0.3532,-0.3533,-0.3533,-0.3557,0,-0.3709,-0.3707,-0.3683,-0.3687,-0.3683,-0.3652,-0.3651,-0.3636,-0.362,-0.3613,-0.3594,-0.3587,-0.3567,-0.3561,-0.3562,-0.3543,-0.3553,-0.354,-0.3529,-0.3529,-0.3535,-0.3576,-0.359,-0.3613,-0.356,-0.356,-0.356,0,-0.3747,-0.3735,-0.3739,-0.3712,-0.371,-0.371,-0.3694,-0.3688,-0.3669,-0.3657,-0.3646,-0.3624,-0.362,-0.3601,-0.3594,-0.3586,-0.3579,-0.3569,-0.3569,-0.3568,-0.3547,-0.3575,-0.362,-0.3624,-0.3565,-0.3564,-0.3564,0,-0.3793,-0.3777,-0.3777,-0.3769,-0.3739,-0.3739,-0.3726,-0.3706,-0.3699,-0.3685,-0.3679,-0.3665,-0.3657,-0.3646,-0.3621,-0.3609,-0.3616,-0.3595,-0.3605,-0.3606,-0.3609,-0.3609,-0.3653,-0.3605,-0.3605,-0.3605,-0.3605,0,-0.3831,-0.3835,-0.3797,-0.3797,-0.3799,-0.3769,-0.3772,-0.3756,-0.3738,-0.3733,-0.3705,-0.3701,-0.3668,-0.3659,-0.364,-0.3636,-0.3633,-0.3622,-0.3617,-0.3624,-0.3626,-0.362,-0.3618,-0.3606,-0.3606,-0.3605,-0.3605,0,-0.3883,-0.3858,-0.3855,-0.3826,-0.3818,-0.3821,-0.3795,-0.3793,-0.3773,-0.3768,-0.3764,-0.3734,-0.3723,-0.3696,-0.3677,-0.3664,-0.3665,-0.3655,-0.3671,-0.3668,-0.3679,-0.3678,-0.3721,-0.3725,-0.3675,-0.3675,-0.3676,0,-0.391,-0.3912,-0.3881,-0.3876,-0.3864,-0.3856,-0.3848,-0.3818,-0.3811,-0.3787,-0.3787,-0.3773,-0.376,-0.3743,-0.3719,-0.3703,-0.3693,-0.3709,-0.3691,-0.3698,-0.3692,-0.3692,-0.3691,-0.3713,-0.3714,-0.3715,-0.3715,0,-0.3959,-0.3946,-0.3935,-0.392,-0.391,-0.3897,-0.3881,-0.3878,-0.3844,-0.3837,-0.3824,-0.3814,-0.3794,-0.378,-0.376,-0.3746,-0.3724,-0.3721,-0.3722,-0.373,-0.3739,-0.3733,-0.3682,-0.372,-0.372,-0.3719,-0.3719,-0.3719,-0.3999,-0.3998,-0.3976,-0.3964,-0.3949,-0.3935,-0.393,-0.391,-0.3899,-0.388,-0.3863,-0.3851,-0.3829,-0.38,-0.3787,-0.3776,-0.3766,-0.3768,-0.3769,-0.377,-0.3772,-0.374,-0.3773,-0.3773,-0.3772,-0.3772,-0.3772,0,-0.4046,-0.4029,-0.4019,-0.3997,-0.3988,-0.3968,-0.3949,-0.3942,-0.3932,-0.3913,-0.39,-0.3884,-0.3869,-0.3843,-0.3825,-0.3822,-0.3811,-0.3818,-0.3818,-0.3815,-0.3783,-0.3784,-0.3827,-0.3827,-0.3827,-0.3827,-0.3827,-0.3827,-0.4069,-0.4066,-0.4049,-0.4037,-0.4021,-0.4009,-0.4,-0.3985,-0.397,-0.3953,-0.3941,-0.3923,-0.39,-0.388,-0.3865,-0.3857,-0.3852,-0.3862,-0.3851,-0.3822,-0.3817,-0.3812,-0.3812,-0.3861,-0.3861,-0.3883,-0.3883,-0.3883]},{"header":{"parameterUnit":"m.s-1","parameterCategory":1,"la1":30.2991,"la2":30.254,"lo1":-89.0895,"lo2":-89.0444,"dy":0.0017,"dx":0.0017,"nx":28,"ny":28,"refTime":"2025-08-25T03:00:00:Z","depth":0,"parameterNumber":3,"parameterNumberName":"V-component_of_WINDS"},"data":[0,0,0,0,0,0,0,0,0,0,0,0,0,0,0,0,0,0,0,0,0,0,0,0,0,0,0,0,0,0,0,0,0,0,0,0,0,0,0,0,0,0,0,0,0,0,0,0,0,0,0,0,0,0,0,0,0,0,-4.183,-4.1831,0,-4.1917,-4.1918,-4.1919,-4.1873,-4.187,-4.1868,-4.1866,-4.1951,-4.1955,-4.1959,0,0,0,0,0,0,0,0,0,0,0,0,0,-4.1619,-4.1624,-4.183,-4.1831,-4.1832,-4.1917,-4.1918,-4.1919,-4.1873,-4.187,-4.1867,-4.1865,-4.1949,-4.1954,-4.196,0,0,0,0,0,0,0,0,0,0,0,0,0,-4.1709,-4.1625,-4.183,-4.1819,-4.1819,-4.1917,-4.1918,-4.192,-4.1874,-4.187,-4.1866,-4.1863,-4.1947,-4.1954,-4.196,-4.2072,0,0,-4.1981,-4.1984,0,0,0,0,0,0,0,0,-4.1704,-4.1717,-4.182,-4.182,-4.182,-4.1881,-4.1875,-4.1971,-4.1874,-4.1853,-4.1866,-4.1862,-4.193,-4.1938,-4.1962,-4.2076,-4.2079,-4.1981,-4.1985,-4.1988,-4.199,0,0,0,0,0,0,0,-4.1698,-4.1713,-4.1864,-4.1821,-4.1822,-4.1809,-4.1818,-4.1893,-4.191,-4.1854,-4.1851,-4.1862,-4.1929,-4.1955,-4.1963,-4.2081,-4.1981,-4.1987,-4.1991,-4.1994,-4.229,-4.2293,0,0,0,0,0,0,-4.1693,-4.1708,-4.1862,-4.1867,-4.1753,-4.1816,-4.1826,-4.1865,-4.1909,-4.1912,-4.1865,-4.186,-4.1946,-4.1955,-4.1966,-4.2099,-4.1988,-4.1994,-4.1998,-4.2286,-4.229,-4.2295,0,0,0,0,0,0,-4.1689,-4.1707,-4.1858,-4.1787,-4.1805,-4.1823,-4.1867,-4.1868,-4.1894,-4.1917,-4.192,-4.1889,-4.1943,-4.1957,-4.2046,-4.2101,-4.1997,-4.2003,-4.2281,-4.2287,-4.2293,-4.2366,0,0,0,0,0,0,-4.1683,-4.1706,-4.1749,-4.1788,-4.1809,-4.1938,-4.1871,-4.1873,-4.1906,-4.19,-4.194,-4.1943,-4.1941,-4.2036,-4.2053,-4.2108,-4.2009,-4.2276,-4.2284,-4.2291,-4.2358,-4.2373,-4.2386,0,0,0,0,0,-4.1675,-4.1766,-4.1752,-4.1771,-4.1864,-4.1942,-4.1953,-4.1951,-4.1911,-4.1954,-4.1969,-4.1942,-4.2093,-4.2046,-4.2064,-4.2122,-4.2273,-4.2282,-4.229,-4.2352,-4.237,-4.2386,0,0,0,0,0,0,-4.1731,-4.1771,-4.1756,-4.1862,-4.1899,-4.1934,-4.1988,-4.197,-4.2018,-4.201,-4.2003,-4.2012,-4.2105,-4.2123,-4.207,-4.2232,-4.2176,-4.2189,-4.2217,-4.2235,-4.2248,-4.2242,-4.2014,0,0,0,0,0,-4.1757,-4.1818,-4.1848,-4.1938,-4.1958,-4.197,-4.2003,-4.1998,-4.2036,-4.2051,-4.2072,-4.2108,-4.2164,-4.22,-4.2252,-4.2361,-4.2368,-4.241,-4.2424,-4.2435,-4.2446,-4.2503,-4.2522,-4.2323,-4.2323,-4.2323,0,0,-4.1808,-4.1837,-4.1876,-4.195,-4.1978,-4.204,-4.1983,-4.2051,-4.2097,-4.2061,-4.2147,-4.2164,-4.2203,-4.2303,-4.2347,-4.232,-4.2502,-4.2446,-4.2455,-4.2459,-4.2514,-4.2533,-4.255,-4.2329,-4.2328,-4.2327,0,0,-4.1934,-4.1962,-4.2041,-4.207,-4.2114,-4.2122,-4.2141,-4.2179,-4.2189,-4.2275,-4.2249,-4.2302,-4.2398,-4.2428,-4.2455,-4.2592,-4.2569,-4.2609,-4.2681,-4.2737,-4.2753,-4.2767,-4.2814,-4.2832,-4.262,-4.262,-4.262,0,-4.1992,-4.2086,-4.2083,-4.2153,-4.2186,-4.2158,-4.2236,-4.2265,-4.2323,-4.2346,-4.2315,-4.2434,-4.2459,-4.2564,-4.2598,-4.2621,-4.2641,-4.2604,-4.2751,-4.2765,-4.2778,-4.2823,-4.2841,-4.2625,-4.2624,-4.2624,-4.2623,0,-4.2154,-4.222,-4.2277,-4.2336,-4.2375,-4.2449,-4.2456,-4.2496,-4.2488,-4.2498,-4.2586,-4.2615,-4.2672,-4.2697,-4.2689,-4.2801,-4.2783,-4.2752,-4.2695,-4.2801,-4.2844,-4.2861,-4.2631,-4.263,-4.2628,-4.2627,0,0,-4.2317,-4.2374,-4.2395,-4.2421,-4.2467,-4.2517,-4.2589,-4.2647,-4.2681,-4.2722,-4.2781,-4.2863,-4.2835,-4.2866,-4.2861,-4.291,-4.3016,-4.2873,-4.2873,-4.2897,-4.314,-4.3162,-4.3183,-4.3001,-4.3004,-4.3007,-4.3136,0,-4.2445,-4.2573,-4.2573,-4.269,-4.275,-4.2724,-4.2786,-4.2821,-4.2833,-4.2884,-4.2896,-4.2954,-4.2912,-4.2931,-4.2979,-4.2993,-4.3064,-4.2984,-4.3054,-4.3057,-4.3045,-4.3205,-4.3229,-4.335,-4.3153,-4.3156,-4.3158,0,-4.2612,-4.266,-4.2784,-4.2821,-4.2846,-4.2903,-4.2955,-4.3005,-4.3043,-4.3048,-4.3083,-4.307,-4.3142,-4.3084,-4.3182,-4.3128,-4.3156,-4.3168,-4.3172,-4.3178,-4.3113,-4.3214,-4.3389,-4.3406,-4.3184,-4.3182,-4.318,0,-4.2717,-4.2813,-4.2899,-4.2922,-4.2968,-4.3008,-4.3029,-4.3064,-4.3099,-4.3144,-4.3166,-4.3219,-4.3247,-4.3288,-4.3289,-4.3247,-4.3387,-4.333,-4.3392,-4.3392,-4.3422,-4.342,-4.3602,-4.3442,-4.3442,-4.3442,-4.3441,0,-4.286,-4.2936,-4.2947,-4.3,-4.3084,-4.3082,-4.3166,-4.3182,-4.3214,-4.3268,-4.3249,-4.33,-4.3299,-4.3351,-4.3352,-4.3432,-4.3446,-4.345,-4.3449,-4.3452,-4.3451,-4.347,-4.3461,-4.3447,-4.3446,-4.3445,-4.3444,0,-4.2991,-4.3002,-4.3094,-4.313,-4.3141,-4.3202,-4.3232,-4.3282,-4.3292,-4.3362,-4.3378,-4.3393,-4.3453,-4.3458,-4.3527,-4.3528,-4.3625,-4.3616,-4.3613,-4.3611,-4.3672,-4.3666,-4.3872,-4.3899,-4.3722,-4.3724,-4.3726,0,-4.3081,-4.3139,-4.3183,-4.3219,-4.3242,-4.33,-4.3336,-4.3336,-4.3373,-4.3421,-4.3465,-4.3523,-4.357,-4.3667,-4.3683,-4.3736,-4.3726,-4.3795,-4.3734,-4.3734,-4.3726,-4.3722,-4.3728,-4.3807,-4.3809,-4.381,-4.3811,0,-4.3239,-4.3241,-4.3294,-4.3349,-4.3392,-4.3435,-4.3475,-4.3505,-4.351,-4.3552,-4.3614,-4.3651,-4.3722,-4.378,-4.3831,-4.3851,-4.3832,-4.3831,-4.3848,-4.385,-4.3845,-4.3848,-4.3644,-4.3826,-4.3824,-4.3823,-4.3823,-4.3822,-4.3351,-4.3402,-4.3441,-4.35,-4.353,-4.3568,-4.3616,-4.3633,-4.3685,-4.3744,-4.3741,-4.3809,-4.3845,-4.3912,-4.3936,-4.3988,-4.3965,-4.3989,-4.3995,-4.4001,-4.4007,-4.3838,-4.3997,-4.3997,-4.3997,-4.3996,-4.3996,0,-4.3507,-4.3531,-4.3586,-4.3643,-4.3689,-4.3669,-4.3712,-4.3752,-4.3813,-4.3848,-4.3895,-4.3966,-4.4022,-4.4043,-4.4097,-4.4134,-4.4127,-4.4148,-4.4145,-4.415,-4.4026,-4.4005,-4.4154,-4.4154,-4.4154,-4.4154,-4.4154,-4.4153,-4.3594,-4.3678,-4.3685,-4.3784,-4.3807,-4.3875,-4.3901,-4.3935,-4.3964,-4.4044,-4.4091,-4.4105,-4.4134,-4.419,-4.424,-4.4245,-4.4265,-4.429,-4.4291,-4.4174,-4.4158,-4.4143,-4.4124,-4.4295,-4.4295,-4.4411,-4.4412,-4.4412]}]]